Time,TemperatureF,DewpointF,PressureIn,WindDirection,WindDirectionDegrees,WindSpeedMPH,WindSpeedGustMPH,Humidity,HourlyPrecipIn,Conditions,Clouds,dailyrainin,SoftwareType,DateUTC
2014-03-18 00:00:00,40.5,30.0,30.13,SSW,202,1.2,1.2,66,0.00,RA,FEW,0.00,WeatherDisplay:10.37,2014-03-18 07:00:00,
2014-03-18 00:05:00,40.5,30.0,30.13,SSW,202,0.0,0.0,66,0.00,RA,FEW,0.00,WeatherDisplay:10.37,2014-03-18 07:05:00,
2014-03-18 00:10:00,40.5,30.0,30.13,SSW,202,0.0,0.0,66,0.00,CLR,FEW,0.00,WeatherDisplay:10.37,2014-03-18 07:10:00,
2014-03-18 00:15:00,40.3,29.8,30.13,SSW,202,0.0,0.0,66,0.00,CLR,FEW,0.00,WeatherDisplay:10.37,2014-03-18 07:15:00,
2014-03-18 00:20:00,40.3,29.8,30.13,SW,225,0.0,0.0,66,0.00,CLR,FEW,0.00,WeatherDisplay:10.37,2014-03-18 07:20:00,
2014-03-18 00:25:00,40.3,29.8,30.13,WSW,248,0.0,0.0,66,0.00,CLR,FEW,0.00,WeatherDisplay:10.37,2014-03-18 07:25:00,
2014-03-18 00:30:00,40.1,29.6,30.13,WSW,248,0.0,0.0,66,0.00,CLR,FEW,0.00,WeatherDisplay:10.37,2014-03-18 07:30:00,
2014-03-18 00:35:00,40.1,29.6,30.13,WSW,248,0.0,0.0,66,0.00,CLR,FEW,0.00,WeatherDisplay:10.37,2014-03-18 07:35:00,
2014-03-18 00:40:00,40.1,29.6,30.13,WSW,248,0.0,0.0,66,0.00,CLR,FEW,0.00,WeatherDisplay:10.37,2014-03-18 07:40:00,
2014-03-18 00:45:00,39.9,29.5,30.13,WSW,248,0.0,0.0,66,0.00,CLR,FEW,0.00,WeatherDisplay:10.37,2014-03-18 07:45:00,
2014-03-18 00:50:00,39.9,29.8,30.13,WSW,248,0.0,0.0,67,0.00,CLR,FEW,0.00,WeatherDisplay:10.37,2014-03-18 07:50:00,
2014-03-18 00:55:00,39.7,29.7,30.14,WSW,248,0.0,0.0,67,0.00,CLR,FEW,0.00,WeatherDisplay:10.37,2014-03-18 07:55:00,
2014-03-18 01:00:00,39.6,29.5,30.13,WSW,248,0.0,0.0,67,0.00,CLR,FEW,0.00,WeatherDisplay:10.37,2014-03-18 08:00:00,
2014-03-18 01:05:00,39.4,29.3,30.14,WSW,248,0.0,0.0,67,0.00,CLR,FEW,0.00,WeatherDisplay:10.37,2014-03-18 08:05:00,
2014-03-18 01:10:00,39.4,29.3,30.14,WSW,248,0.0,0.0,67,0.00,CLR,FEW,0.00,WeatherDisplay:10.37,2014-03-18 08:10:00,
2014-03-18 01:15:00,39.4,29.7,30.14,WSW,248,0.0,0.0,68,0.00,CLR,FEW,0.00,WeatherDisplay:10.37,2014-03-18 08:15:00,
2014-03-18 01:20:00,39.0,29.3,30.14,WSW,248,0.0,0.0,68,0.00,CLR,FEW,0.00,WeatherDisplay:10.37,2014-03-18 08:20:00,
2014-03-18 01:25:00,39.0,29.3,30.14,WSW,248,0.0,0.0,68,0.00,CLR,FEW,0.00,WeatherDisplay:10.37,2014-03-18 08:25:00,
2014-03-18 01:30:00,38.8,29.2,30.15,WSW,248,0.0,0.0,68,0.00,CLR,FEW,0.00,WeatherDisplay:10.37,2014-03-18 08:30:00,
2014-03-18 01:35:00,38.8,29.5,30.15,WSW,248,0.0,0.0,69,0.00,CLR,FEW,0.00,WeatherDisplay:10.37,2014-03-18 08:35:00,
2014-03-18 01:40:00,38.8,29.5,30.15,WSW,248,0.0,0.0,69,0.00,CLR,FEW,0.00,WeatherDisplay:10.37,2014-03-18 08:40:00,
2014-03-18 01:45:00,38.7,29.4,30.15,WSW,248,0.0,0.0,69,0.00,CLR,FEW,0.00,WeatherDisplay:10.37,2014-03-18 08:45:00,
2014-03-18 01:50:00,38.5,29.2,30.15,WSW,248,0.0,0.0,69,0.00,CLR,FEW,0.00,WeatherDisplay:10.37,2014-03-18 08:50:00,
2014-03-18 01:55:00,38.5,29.2,30.15,WSW,248,0.0,0.0,69,0.00,CLR,FEW,0.00,WeatherDisplay:10.37,2014-03-18 08:55:00,
2014-03-18 02:00:00,38.5,29.2,30.16,WSW,248,0.0,0.0,69,0.00,CLR,FEW,0.00,WeatherDisplay:10.37,2014-03-18 09:00:00,
2014-03-18 02:05:00,38.3,29.4,30.15,WSW,248,0.0,0.0,70,0.00,CLR,FEW,0.00,WeatherDisplay:10.37,2014-03-18 09:05:00,
2014-03-18 02:10:00,38.3,29.4,30.15,WSW,248,0.0,0.0,70,0.00,CLR,FEW,0.00,WeatherDisplay:10.37,2014-03-18 09:10:00,
2014-03-18 02:15:00,38.1,29.2,30.15,WSW,248,0.0,0.0,70,0.00,CLR,FEW,0.00,WeatherDisplay:10.37,2014-03-18 09:15:00,
2014-03-18 02:20:00,38.1,29.5,30.16,WSW,248,0.0,0.0,71,0.00,CLR,FEW,0.00,WeatherDisplay:10.37,2014-03-18 09:20:00,
2014-03-18 02:25:00,38.1,29.5,30.16,WSW,248,0.0,0.0,71,0.00,CLR,FEW,0.00,WeatherDisplay:10.37,2014-03-18 09:25:00,
2014-03-18 02:30:00,37.9,29.4,30.16,WSW,248,0.0,0.0,71,0.00,CLR,FEW,0.00,WeatherDisplay:10.37,2014-03-18 09:30:00,
2014-03-18 02:35:00,37.9,29.4,30.16,WSW,248,0.0,0.0,71,0.00,CLR,FEW,0.00,WeatherDisplay:10.37,2014-03-18 09:35:00,
2014-03-18 02:40:00,37.9,29.4,30.16,WSW,248,0.0,0.0,71,0.00,CLR,FEW,0.00,WeatherDisplay:10.37,2014-03-18 09:40:00,
2014-03-18 02:45:00,37.8,29.2,30.16,WSW,248,0.0,0.0,71,0.00,CLR,FEW,0.00,WeatherDisplay:10.37,2014-03-18 09:45:00,
2014-03-18 02:50:00,37.8,29.2,30.15,WSW,248,0.0,0.0,71,0.00,CLR,FEW,0.00,WeatherDisplay:10.37,2014-03-18 09:50:00,
2014-03-18 02:55:00,37.6,29.4,30.16,WSW,248,0.0,0.0,72,0.00,CLR,FEW,0.00,WeatherDisplay:10.37,2014-03-18 09:55:00,
2014-03-18 03:00:00,37.6,29.4,30.16,WSW,248,0.0,0.0,72,0.00,CLR,FEW,0.00,WeatherDisplay:10.37,2014-03-18 10:00:00,
2014-03-18 03:06:00,37.6,29.4,30.16,WSW,248,0.0,0.0,72,0.00,CLR,FEW,0.00,WeatherDisplay:10.37,2014-03-18 10:06:00,
2014-03-18 03:11:00,37.4,29.5,30.16,WSW,248,0.0,0.0,73,0.00,CLR,FEW,0.00,WeatherDisplay:10.37,2014-03-18 10:11:00,
2014-03-18 03:16:00,37.4,29.5,30.17,WSW,248,0.0,0.0,73,0.00,CLR,FEW,0.00,WeatherDisplay:10.37,2014-03-18 10:16:00,
2014-03-18 03:21:00,37.4,29.5,30.16,WSW,248,0.0,0.0,73,0.00,CLR,FEW,0.00,WeatherDisplay:10.37,2014-03-18 10:21:00,
2014-03-18 03:26:00,37.4,29.5,30.16,WSW,248,0.0,0.0,73,0.00,CLR,FEW,0.00,WeatherDisplay:10.37,2014-03-18 10:26:00,
2014-03-18 03:31:00,37.4,29.5,30.16,WSW,248,0.0,0.0,73,0.00,CLR,FEW,0.00,WeatherDisplay:10.37,2014-03-18 10:31:00,
2014-03-18 03:36:00,37.4,29.5,30.15,WSW,248,0.0,0.0,73,0.00,CLR,FEW,0.00,WeatherDisplay:10.37,2014-03-18 10:36:00,
2014-03-18 03:41:00,37.2,29.4,30.16,WSW,248,0.0,0.0,73,0.00,CLR,FEW,0.00,WeatherDisplay:10.37,2014-03-18 10:41:00,
2014-03-18 03:46:00,37.2,29.4,30.16,WSW,248,0.0,0.0,73,0.00,CLR,FEW,0.00,WeatherDisplay:10.37,2014-03-18 10:46:00,
2014-03-18 03:51:00,37.2,29.4,30.16,WSW,248,0.0,0.0,73,0.00,CLR,FEW,0.00,WeatherDisplay:10.37,2014-03-18 10:51:00,
2014-03-18 03:56:00,37.2,29.4,30.16,WSW,248,0.0,0.0,73,0.00,CLR,FEW,0.00,WeatherDisplay:10.37,2014-03-18 10:56:00,
2014-03-18 04:01:00,37.2,29.7,30.16,WSW,248,0.0,0.0,74,0.00,CLR,FEW,0.00,WeatherDisplay:10.37,2014-03-18 11:01:00,
2014-03-18 04:06:00,37.2,29.7,30.17,WSW,248,0.0,0.0,74,0.00,CLR,FEW,0.00,WeatherDisplay:10.37,2014-03-18 11:06:00,
2014-03-18 04:11:00,37.0,29.5,30.17,WSW,248,0.0,0.0,74,0.00,CLR,FEW,0.00,WeatherDisplay:10.37,2014-03-18 11:11:00,
2014-03-18 04:16:00,37.0,29.5,30.17,WSW,248,0.0,0.0,74,0.00,CLR,FEW,0.00,WeatherDisplay:10.37,2014-03-18 11:16:00,
2014-03-18 04:21:00,36.9,29.3,30.17,WSW,248,0.0,0.0,74,0.00,CLR,FEW,0.00,WeatherDisplay:10.37,2014-03-18 11:21:00,
2014-03-18 04:26:00,36.7,29.2,30.17,WSW,248,0.0,0.0,74,0.00,CLR,FEW,0.00,WeatherDisplay:10.37,2014-03-18 11:26:00,
2014-03-18 04:31:00,36.5,29.0,30.17,WSW,248,0.0,0.0,74,0.00,CLR,FEW,0.00,WeatherDisplay:10.37,2014-03-18 11:31:00,
2014-03-18 04:36:00,36.5,29.0,30.17,WSW,248,0.0,0.0,74,0.00,CLR,FEW,0.00,WeatherDisplay:10.37,2014-03-18 11:36:00,
2014-03-18 04:41:00,36.3,28.8,30.17,WSW,248,0.0,0.0,74,0.00,CLR,FEW,0.00,WeatherDisplay:10.37,2014-03-18 11:41:00,
2014-03-18 04:46:00,36.3,28.8,30.17,WSW,248,0.0,0.0,74,0.00,CLR,FEW,0.00,WeatherDisplay:10.37,2014-03-18 11:46:00,
2014-03-18 04:51:00,36.1,29.0,30.18,WSW,248,0.0,0.0,75,0.00,CLR,FEW,0.00,WeatherDisplay:10.37,2014-03-18 11:51:00,
2014-03-18 04:56:00,36.0,28.8,30.18,WSW,248,0.0,0.0,75,0.00,CLR,FEW,0.00,WeatherDisplay:10.37,2014-03-18 11:56:00,
2014-03-18 05:01:00,35.8,28.6,30.18,WSW,248,0.0,0.0,75,0.00,CLR,FEW,0.00,WeatherDisplay:10.37,2014-03-18 12:01:00,
2014-03-18 05:06:00,35.8,28.6,30.18,WSW,248,0.0,0.0,75,0.00,CLR,FEW,0.00,WeatherDisplay:10.37,2014-03-18 12:06:00,
2014-03-18 05:11:00,35.8,28.6,30.18,WSW,248,0.0,0.0,75,0.00,CLR,FEW,0.00,WeatherDisplay:10.37,2014-03-18 12:11:00,
2014-03-18 05:16:00,35.8,28.6,30.18,WSW,248,0.0,0.0,75,0.00,CLR,FEW,0.00,WeatherDisplay:10.37,2014-03-18 12:16:00,
2014-03-18 05:21:00,35.6,28.5,30.19,WSW,248,0.0,0.0,75,0.00,CLR,FEW,0.00,WeatherDisplay:10.37,2014-03-18 12:21:00,
2014-03-18 05:27:00,35.4,28.3,30.19,WSW,248,0.0,0.0,75,0.00,CLR,FEW,0.00,WeatherDisplay:10.37,2014-03-18 12:27:00,
2014-03-18 05:32:00,35.4,28.6,30.19,WSW,248,0.0,0.0,76,0.00,CLR,FEW,0.00,WeatherDisplay:10.37,2014-03-18 12:32:00,
2014-03-18 05:37:00,35.4,28.6,30.19,WSW,248,0.0,0.0,76,0.00,CLR,FEW,0.00,WeatherDisplay:10.37,2014-03-18 12:37:00,
2014-03-18 05:42:00,35.2,28.4,30.20,WSW,248,0.0,0.0,76,0.00,CLR,FEW,0.00,WeatherDisplay:10.37,2014-03-18 12:42:00,
2014-03-18 05:47:00,35.2,28.4,30.20,WSW,248,0.0,0.0,76,0.00,CLR,FEW,0.00,WeatherDisplay:10.37,2014-03-18 12:47:00,
2014-03-18 05:52:00,35.1,28.3,30.20,WSW,248,0.0,0.0,76,0.00,CLR,FEW,0.00,WeatherDisplay:10.37,2014-03-18 12:52:00,
2014-03-18 05:57:00,34.9,28.1,30.20,WSW,248,0.0,0.0,76,0.00,CLR,FEW,0.00,WeatherDisplay:10.37,2014-03-18 12:57:00,
2014-03-18 06:02:00,34.9,28.4,30.20,WSW,248,0.0,0.0,77,0.00,CLR,FEW,0.00,WeatherDisplay:10.37,2014-03-18 13:02:00,
2014-03-18 06:07:00,34.9,28.4,30.20,WSW,248,0.0,0.0,77,0.00,CLR,FEW,0.00,WeatherDisplay:10.37,2014-03-18 13:07:00,
2014-03-18 06:12:00,34.9,28.4,30.20,WSW,248,0.0,0.0,77,0.00,CLR,FEW,0.00,WeatherDisplay:10.37,2014-03-18 13:12:00,
2014-03-18 06:17:00,34.9,28.4,30.20,WSW,248,0.0,0.0,77,0.00,CLR,FEW,0.00,WeatherDisplay:10.37,2014-03-18 13:17:00,
2014-03-18 06:22:00,34.9,28.4,30.20,WSW,248,0.0,0.0,77,0.00,CLR,FEW,0.00,WeatherDisplay:10.37,2014-03-18 13:22:00,
2014-03-18 06:27:00,34.9,28.4,30.21,WSW,248,0.0,0.0,77,0.00,CLR,FEW,0.00,WeatherDisplay:10.37,2014-03-18 13:27:00,
2014-03-18 06:32:00,34.9,28.4,30.21,WSW,248,0.0,0.0,77,0.00,CLR,FEW,0.00,WeatherDisplay:10.37,2014-03-18 13:32:00,
2014-03-18 06:37:00,34.9,28.4,30.21,WSW,248,0.0,0.0,77,0.00,CLR,FEW,0.00,WeatherDisplay:10.37,2014-03-18 13:37:00,
2014-03-18 06:42:00,34.9,28.4,30.21,WSW,248,0.0,0.0,77,0.00,CLR,FEW,0.00,WeatherDisplay:10.37,2014-03-18 13:42:00,
2014-03-18 06:47:00,34.9,28.4,30.21,WSW,248,0.0,0.0,77,0.00,CLR,FEW,0.00,WeatherDisplay:10.37,2014-03-18 13:47:00,
2014-03-18 06:52:00,34.9,28.4,30.21,WSW,248,0.0,0.0,77,0.00,CLR,FEW,0.00,WeatherDisplay:10.37,2014-03-18 13:52:00,
2014-03-18 06:57:00,34.9,28.4,30.22,WSW,248,0.0,0.0,77,0.00,CLR,FEW,0.00,WeatherDisplay:10.37,2014-03-18 13:57:00,
2014-03-18 07:02:00,34.9,28.4,30.21,WSW,248,0.0,0.0,77,0.00,CLR,FEW,0.00,WeatherDisplay:10.37,2014-03-18 14:02:00,
2014-03-18 07:07:00,34.9,28.4,30.21,WSW,248,0.0,0.0,77,0.00,CLR,FEW,0.00,WeatherDisplay:10.37,2014-03-18 14:07:00,
2014-03-18 07:12:00,34.9,28.4,30.22,WSW,248,0.0,0.0,77,0.00,CLR,FEW,0.00,WeatherDisplay:10.37,2014-03-18 14:12:00,
2014-03-18 07:17:00,34.9,28.4,30.22,WSW,248,0.0,0.0,77,0.00,CLR,FEW,0.00,WeatherDisplay:10.37,2014-03-18 14:17:00,
2014-03-18 07:22:00,34.9,28.7,30.22,WSW,248,0.0,0.0,78,0.00,CLR,FEW,0.00,WeatherDisplay:10.37,2014-03-18 14:22:00,
2014-03-18 07:27:00,34.9,28.7,30.22,WSW,248,0.0,0.0,78,0.00,CLR,FEW,0.00,WeatherDisplay:10.37,2014-03-18 14:27:00,
2014-03-18 07:32:00,34.9,28.7,30.22,WSW,248,0.0,0.0,78,0.00,CLR,FEW,0.00,WeatherDisplay:10.37,2014-03-18 14:32:00,
2014-03-18 07:37:00,35.2,29.1,30.23,WSW,248,0.0,0.0,78,0.00,CLR,FEW,0.00,WeatherDisplay:10.37,2014-03-18 14:37:00,
2014-03-18 07:42:00,35.4,29.2,30.23,WSW,248,0.0,0.0,78,0.00,CLR,FEW,0.00,WeatherDisplay:10.37,2014-03-18 14:42:00,
2014-03-18 07:47:00,35.4,29.6,30.23,WSW,248,0.0,0.0,79,0.00,CLR,FEW,0.00,WeatherDisplay:10.37,2014-03-18 14:47:00,
2014-03-18 07:52:00,35.8,29.9,30.23,WSW,248,0.0,0.0,79,0.00,CLR,FEW,0.00,WeatherDisplay:10.37,2014-03-18 14:52:00,
2014-03-18 07:57:00,35.8,29.9,30.23,WSW,248,0.0,0.0,79,0.00,CLR,FEW,0.00,WeatherDisplay:10.37,2014-03-18 14:57:00,
2014-03-18 08:03:00,36.0,30.1,30.23,WSW,248,0.0,0.0,79,0.00,CLR,FEW,0.00,WeatherDisplay:10.37,2014-03-18 15:03:00,
2014-03-18 08:08:00,36.0,30.1,30.23,WSW,248,0.0,0.0,79,0.00,CLR,FEW,0.00,WeatherDisplay:10.37,2014-03-18 15:08:00,
2014-03-18 08:13:00,36.1,30.3,30.23,WSW,248,0.0,0.0,79,0.00,CLR,FEW,0.00,WeatherDisplay:10.37,2014-03-18 15:13:00,
2014-03-18 08:18:00,36.3,30.4,30.23,WSW,248,0.0,0.0,79,0.00,CLR,FEW,0.00,WeatherDisplay:10.37,2014-03-18 15:18:00,
2014-03-18 08:23:00,36.7,30.8,30.23,WSW,248,0.0,0.0,79,0.00,CLR,FEW,0.00,WeatherDisplay:10.37,2014-03-18 15:23:00,
2014-03-18 08:28:00,37.0,31.1,30.23,WSW,248,0.0,0.0,79,0.00,CLR,FEW,0.00,WeatherDisplay:10.37,2014-03-18 15:28:00,
2014-03-18 08:33:00,37.6,31.7,30.24,WSW,248,0.0,0.0,79,0.00,CLR,FEW,0.00,WeatherDisplay:10.37,2014-03-18 15:33:00,
2014-03-18 08:38:00,37.8,31.8,30.24,WSW,248,0.0,0.0,79,0.00,CLR,FEW,0.00,WeatherDisplay:10.37,2014-03-18 15:38:00,
2014-03-18 08:43:00,38.1,32.2,30.24,WSW,248,0.0,0.0,79,0.00,CLR,FEW,0.00,WeatherDisplay:10.37,2014-03-18 15:43:00,
2014-03-18 08:48:00,38.5,32.5,30.24,WSW,248,0.0,0.0,79,0.00,CLR,FEW,0.00,WeatherDisplay:10.37,2014-03-18 15:48:00,
2014-03-18 08:53:00,38.8,32.9,30.24,WSW,248,0.0,0.0,79,0.00,CLR,FEW,0.00,WeatherDisplay:10.37,2014-03-18 15:53:00,
2014-03-18 08:58:00,39.0,32.7,30.24,WSW,248,0.0,0.0,78,0.00,CLR,FEW,0.00,WeatherDisplay:10.37,2014-03-18 15:58:00,
2014-03-18 09:03:00,39.0,32.7,30.24,WSW,248,0.0,0.0,78,0.00,CLR,FEW,0.00,WeatherDisplay:10.37,2014-03-18 16:03:00,
2014-03-18 09:08:00,39.7,33.4,30.24,WSW,248,0.0,0.0,78,0.00,CLR,FEW,0.00,WeatherDisplay:10.37,2014-03-18 16:08:00,
2014-03-18 09:13:00,40.1,33.5,30.24,West,270,0.0,0.0,77,0.00,CLR,FEW,0.00,WeatherDisplay:10.37,2014-03-18 16:13:00,
2014-03-18 09:18:00,40.3,33.3,30.24,NW,315,0.0,0.0,76,0.00,CLR,FEW,0.00,WeatherDisplay:10.37,2014-03-18 16:18:00,
2014-03-18 09:23:00,40.5,33.5,30.24,NW,315,0.0,0.0,76,0.00,CLR,FEW,0.00,WeatherDisplay:10.37,2014-03-18 16:23:00,
2014-03-18 09:28:00,40.6,33.3,30.24,NNW,338,0.0,0.0,75,0.00,CLR,FEW,0.00,WeatherDisplay:10.37,2014-03-18 16:28:00,
2014-03-18 09:33:00,40.8,33.5,30.24,NNW,338,0.0,0.0,75,0.00,CLR,FEW,0.00,WeatherDisplay:10.37,2014-03-18 16:33:00,
2014-03-18 09:38:00,40.8,33.5,30.24,NNW,338,0.0,0.0,75,0.00,CLR,FEW,0.00,WeatherDisplay:10.37,2014-03-18 16:38:00,
2014-03-18 09:43:00,41.4,33.7,30.23,NE,45,0.0,0.0,74,0.00,CLR,FEW,0.00,WeatherDisplay:10.37,2014-03-18 16:43:00,
2014-03-18 09:48:00,41.5,33.5,30.24,NE,45,0.0,0.6,73,0.00,CLR,FEW,0.00,WeatherDisplay:10.37,2014-03-18 16:48:00,
2014-03-18 09:53:00,41.7,33.4,30.24,ENE,68,3.5,3.8,72,0.00,CLR,FEW,0.00,WeatherDisplay:10.37,2014-03-18 16:53:00,
2014-03-18 09:58:00,42.1,33.7,30.24,ENE,68,3.5,3.5,72,0.00,CLR,FEW,0.00,WeatherDisplay:10.37,2014-03-18 16:58:00,
2014-03-18 10:03:00,42.4,33.7,30.24,ENE,68,0.0,0.0,71,0.00,CLR,FEW,0.00,WeatherDisplay:10.37,2014-03-18 17:03:00,
2014-03-18 10:08:00,43.0,34.6,30.23,SSE,158,4.6,4.6,72,0.00,CLR,FEW,0.00,WeatherDisplay:10.37,2014-03-18 17:08:00,
2014-03-18 10:13:00,43.9,35.1,30.24,SE,135,0.0,0.0,71,0.00,CLR,FEW,0.00,WeatherDisplay:10.37,2014-03-18 17:13:00,
2014-03-18 10:18:00,44.4,35.2,30.24,ENE,68,0.0,0.0,70,0.00,CLR,FEW,0.00,WeatherDisplay:10.37,2014-03-18 17:18:00,
2014-03-18 10:24:00,45.1,34.5,30.23,ESE,112,0.0,0.0,66,0.00,CLR,FEW,0.00,WeatherDisplay:10.37,2014-03-18 17:24:00,
2014-03-18 10:25:00,45.1,34.5,30.24,ESE,112,0.0,0.0,66,0.00,CLR,FEW,0.00,WeatherDisplay:10.37,2014-03-18 17:25:00,
2014-03-18 10:30:00,45.5,34.0,30.23,ENE,68,2.3,2.3,64,0.00,CLR,FEW,0.00,WeatherDisplay:10.37,2014-03-18 17:30:00,
2014-03-18 10:35:00,45.7,33.4,30.23,ENE,68,0.0,0.0,62,0.00,CLR,FEW,0.00,WeatherDisplay:10.37,2014-03-18 17:35:00,
2014-03-18 10:40:00,45.7,33.0,30.24,ENE,68,0.0,0.0,61,0.00,CLR,FEW,0.00,WeatherDisplay:10.37,2014-03-18 17:40:00,
2014-03-18 10:46:00,45.7,33.0,30.23,ENE,68,0.0,0.0,61,0.00,CLR,FEW,0.00,WeatherDisplay:10.37,2014-03-18 17:46:00,
2014-03-18 10:51:00,46.0,33.3,30.23,ENE,68,0.0,0.0,61,0.00,CLR,FEW,0.00,WeatherDisplay:10.37,2014-03-18 17:51:00,
2014-03-18 10:56:00,46.0,32.5,30.23,NE,45,0.0,0.0,59,0.00,CLR,FEW,0.00,WeatherDisplay:10.37,2014-03-18 17:56:00,
2014-03-18 11:01:00,46.0,32.1,30.23,ENE,68,0.0,0.0,58,0.00,CLR,FEW,0.00,WeatherDisplay:10.37,2014-03-18 18:01:00,
2014-03-18 11:06:00,46.2,32.2,30.23,ENE,68,0.0,0.0,58,0.00,CLR,FEW,0.00,WeatherDisplay:10.37,2014-03-18 18:06:00,
2014-03-18 11:11:00,46.4,32.0,30.23,East,90,0.0,0.0,57,0.00,CLR,FEW,0.00,WeatherDisplay:10.37,2014-03-18 18:11:00,
2014-03-18 11:16:00,46.6,31.7,30.23,NE,45,3.5,3.5,56,0.00,CLR,FEW,0.00,WeatherDisplay:10.37,2014-03-18 18:16:00,
2014-03-18 11:21:00,47.1,32.2,30.23,NNE,22,5.8,0.0,56,0.00,CLR,FEW,0.00,WeatherDisplay:10.37,2014-03-18 18:21:00,
2014-03-18 11:26:00,47.5,31.6,30.22,NNE,22,2.3,2.3,54,0.00,CLR,FEW,0.00,WeatherDisplay:10.37,2014-03-18 18:26:00,
2014-03-18 11:31:00,47.7,32.3,30.22,SE,135,6.9,0.0,55,0.00,CLR,FEW,0.00,WeatherDisplay:10.37,2014-03-18 18:31:00,
2014-03-18 11:36:00,48.0,32.6,30.22,East,90,0.0,0.1,55,0.00,CLR,FEW,0.00,WeatherDisplay:10.37,2014-03-18 18:36:00,
2014-03-18 11:41:00,48.6,32.7,30.22,ENE,68,0.0,0.0,54,0.00,CLR,FEW,0.00,WeatherDisplay:10.37,2014-03-18 18:41:00,
2014-03-18 11:46:00,48.9,32.5,30.22,NNW,338,2.9,0.0,53,0.00,CLR,FEW,0.00,WeatherDisplay:10.37,2014-03-18 18:46:00,
2014-03-18 11:51:00,48.9,31.6,30.23,NE,45,4.6,4.6,51,0.00,CLR,FEW,0.00,WeatherDisplay:10.37,2014-03-18 18:51:00,
2014-03-18 11:56:00,48.7,30.9,30.22,NNW,338,2.3,2.3,50,0.00,CLR,FEW,0.00,WeatherDisplay:10.37,2014-03-18 18:56:00,
2014-03-18 12:01:00,48.7,30.4,30.22,WNW,292,4.6,4.6,49,0.00,CLR,FEW,0.00,WeatherDisplay:10.37,2014-03-18 19:01:00,
2014-03-18 12:06:00,48.7,30.9,30.22,NW,315,1.2,1.2,50,0.00,CLR,FEW,0.00,WeatherDisplay:10.37,2014-03-18 19:06:00,
2014-03-18 12:11:00,49.1,31.2,30.22,NW,315,5.8,0.0,50,0.00,CLR,FEW,0.00,WeatherDisplay:10.37,2014-03-18 19:11:00,
2014-03-18 12:16:00,49.6,31.7,30.22,North,0,2.3,2.4,50,0.00,CLR,FEW,0.00,WeatherDisplay:10.37,2014-03-18 19:16:00,
2014-03-18 12:21:00,49.6,30.7,30.22,NW,315,0.0,0.0,48,0.00,CLR,FEW,0.00,WeatherDisplay:10.37,2014-03-18 19:21:00,
2014-03-18 12:26:00,49.8,30.9,30.22,North,0,9.2,9.6,48,0.00,CLR,FEW,0.00,WeatherDisplay:10.37,2014-03-18 19:26:00,
2014-03-18 12:31:00,49.6,29.7,30.22,NNE,22,9.2,9.2,46,0.00,CLR,FEW,0.00,WeatherDisplay:10.37,2014-03-18 19:31:00,
2014-03-18 12:36:00,49.3,29.9,30.21,WNW,292,0.0,0.0,47,0.00,CLR,FEW,0.00,WeatherDisplay:10.37,2014-03-18 19:36:00,
2014-03-18 12:41:00,49.5,30.6,30.21,NNW,338,4.6,4.6,48,0.00,CLR,FEW,0.00,WeatherDisplay:10.37,2014-03-18 19:41:00,
2014-03-18 12:46:00,49.6,30.7,30.21,ENE,68,4.6,4.7,48,0.00,CLR,FEW,0.00,WeatherDisplay:10.37,2014-03-18 19:46:00,
2014-03-18 12:51:00,49.6,30.2,30.21,NE,45,8.1,8.1,47,0.00,CLR,FEW,0.00,WeatherDisplay:10.37,2014-03-18 19:51:00,
2014-03-18 12:56:00,49.6,29.7,30.22,ENE,68,3.5,3.5,46,0.00,CLR,FEW,0.00,WeatherDisplay:10.37,2014-03-18 19:56:00,
2014-03-18 13:01:00,49.6,30.2,30.21,ENE,68,0.0,0.0,47,0.00,CLR,FEW,0.00,WeatherDisplay:10.37,2014-03-18 20:01:00,
2014-03-18 13:06:00,49.6,30.2,30.21,SE,135,0.0,0.0,47,0.00,CLR,FEW,0.00,WeatherDisplay:10.37,2014-03-18 20:06:00,
2014-03-18 13:11:00,49.8,30.9,30.21,SSW,202,3.5,3.5,48,0.00,CLR,FEW,0.00,WeatherDisplay:10.37,2014-03-18 20:11:00,
2014-03-18 13:16:00,50.5,31.0,30.21,NNW,338,4.6,4.7,47,0.00,CLR,FEW,0.00,WeatherDisplay:10.37,2014-03-18 20:16:00,
2014-03-18 13:21:00,50.7,29.6,30.21,NE,45,12.7,12.7,44,0.00,CLR,FEW,0.00,WeatherDisplay:10.37,2014-03-18 20:21:00,
2014-03-18 13:26:00,50.2,29.1,30.21,NW,315,9.2,9.2,44,0.00,CLR,FEW,0.00,WeatherDisplay:10.37,2014-03-18 20:26:00,
2014-03-18 13:31:00,50.2,29.6,30.21,West,270,10.4,10.7,45,0.00,CLR,FEW,0.00,WeatherDisplay:10.37,2014-03-18 20:31:00,
2014-03-18 13:36:00,50.2,29.1,30.21,NNW,338,9.2,9.2,44,0.00,CLR,FEW,0.00,WeatherDisplay:10.37,2014-03-18 20:36:00,
2014-03-18 13:41:00,49.8,28.8,30.21,West,270,8.1,8.1,44,0.00,CLR,FEW,0.00,WeatherDisplay:10.37,2014-03-18 20:41:00,
2014-03-18 13:46:00,49.8,29.3,30.20,NNW,338,0.0,0.0,45,0.00,CLR,FEW,0.00,WeatherDisplay:10.37,2014-03-18 20:46:00,
2014-03-18 13:51:00,49.8,29.3,30.20,West,270,5.8,6.8,45,0.00,CLR,FEW,0.00,WeatherDisplay:10.37,2014-03-18 20:51:00,
2014-03-18 13:56:00,49.8,29.3,30.20,NW,315,0.0,0.0,45,0.00,CLR,FEW,0.00,WeatherDisplay:10.37,2014-03-18 20:56:00,
2014-03-18 14:01:00,50.2,29.6,30.20,NE,45,0.0,0.1,45,0.00,CLR,FEW,0.00,WeatherDisplay:10.37,2014-03-18 21:01:00,
2014-03-18 14:06:00,50.2,29.1,30.19,NNW,338,6.9,6.9,44,0.00,CLR,FEW,0.00,WeatherDisplay:10.37,2014-03-18 21:06:00,
2014-03-18 14:11:00,50.2,29.1,30.19,NNE,22,2.3,0.0,44,0.00,CLR,FEW,0.00,WeatherDisplay:10.37,2014-03-18 21:11:00,
2014-03-18 14:16:00,50.4,29.2,30.19,East,90,0.0,0.0,44,0.00,CLR,FEW,0.00,WeatherDisplay:10.37,2014-03-18 21:16:00,
2014-03-18 14:21:00,50.4,29.2,30.19,East,90,0.0,0.0,44,0.00,CLR,FEW,0.00,WeatherDisplay:10.37,2014-03-18 21:21:00,
2014-03-18 14:26:00,50.5,29.4,30.19,NNW,338,9.2,9.2,44,0.00,CLR,FEW,0.00,WeatherDisplay:10.37,2014-03-18 21:26:00,
2014-03-18 14:31:00,50.7,29.0,30.19,NNW,338,2.3,0.0,43,0.00,CLR,FEW,0.00,WeatherDisplay:10.37,2014-03-18 21:31:00,
2014-03-18 14:36:00,50.7,29.0,30.19,North,0,4.6,5.1,43,0.00,CLR,FEW,0.00,WeatherDisplay:10.37,2014-03-18 21:36:00,
2014-03-18 14:41:00,50.7,28.4,30.19,North,0,6.9,6.9,42,0.00,CLR,FEW,0.00,WeatherDisplay:10.37,2014-03-18 21:41:00,
2014-03-18 14:46:00,50.7,28.4,30.18,ENE,68,6.9,7.2,42,0.00,CLR,FEW,0.00,WeatherDisplay:10.37,2014-03-18 21:46:00,
2014-03-18 14:51:00,50.9,28.6,30.19,NW,315,11.5,11.5,42,0.00,CLR,FEW,0.00,WeatherDisplay:10.37,2014-03-18 21:51:00,
2014-03-18 14:56:00,51.3,28.9,30.19,NW,315,6.9,6.9,42,0.00,CLR,FEW,0.00,WeatherDisplay:10.37,2014-03-18 21:56:00,
2014-03-18 15:01:00,51.4,28.5,30.19,NW,315,5.8,5.8,41,0.00,CLR,FEW,0.00,WeatherDisplay:10.37,2014-03-18 22:01:00,
2014-03-18 15:06:00,51.3,28.3,30.19,NNW,338,6.9,6.9,41,0.00,CLR,FEW,0.00,WeatherDisplay:10.37,2014-03-18 22:06:00,
2014-03-18 15:11:00,51.1,28.2,30.19,NW,315,2.3,2.3,41,0.00,CLR,FEW,0.00,WeatherDisplay:10.37,2014-03-18 22:11:00,
2014-03-18 15:16:00,51.1,28.8,30.19,North,0,6.9,6.9,42,0.00,CLR,FEW,0.00,WeatherDisplay:10.37,2014-03-18 22:16:00,
2014-03-18 15:21:00,50.9,28.6,30.19,NNW,338,6.9,6.9,42,0.00,CLR,FEW,0.00,WeatherDisplay:10.37,2014-03-18 22:21:00,
2014-03-18 15:26:00,50.9,28.0,30.19,North,0,3.5,3.5,41,0.00,CLR,FEW,0.00,WeatherDisplay:10.37,2014-03-18 22:26:00,
2014-03-18 15:31:00,50.9,28.6,30.19,NW,315,5.8,6.3,42,0.00,CLR,FEW,0.00,WeatherDisplay:10.37,2014-03-18 22:31:00,
2014-03-18 15:36:00,51.1,28.2,30.19,NNE,22,3.5,3.5,41,0.00,CLR,FEW,0.00,WeatherDisplay:10.37,2014-03-18 22:36:00,
2014-03-18 15:41:00,51.1,28.2,30.19,WNW,292,6.9,6.9,41,0.00,CLR,FEW,0.00,WeatherDisplay:10.37,2014-03-18 22:41:00,
2014-03-18 15:46:00,51.3,28.3,30.19,WSW,248,0.0,0.0,41,0.00,CLR,FEW,0.00,WeatherDisplay:10.37,2014-03-18 22:46:00,
2014-03-18 15:51:00,51.4,29.1,30.19,NNW,338,0.0,0.0,42,0.00,CLR,FEW,0.00,WeatherDisplay:10.37,2014-03-18 22:51:00,
2014-03-18 15:56:00,51.4,28.5,30.19,NNW,338,6.9,6.9,41,0.00,CLR,FEW,0.00,WeatherDisplay:10.37,2014-03-18 22:56:00,
2014-03-18 16:01:00,51.6,29.3,30.18,WSW,248,2.3,2.3,42,0.00,CLR,FEW,0.00,WeatherDisplay:10.37,2014-03-18 23:01:00,
2014-03-18 16:06:00,51.6,28.7,30.18,North,0,0.0,0.0,41,0.00,CLR,FEW,0.00,WeatherDisplay:10.37,2014-03-18 23:06:00,
2014-03-18 16:11:00,51.6,28.7,30.19,WNW,292,8.1,8.1,41,0.00,CLR,FEW,0.00,WeatherDisplay:10.37,2014-03-18 23:11:00,
2014-03-18 16:16:00,51.6,28.1,30.19,NW,315,1.2,1.6,40,0.00,CLR,FEW,0.00,WeatherDisplay:10.37,2014-03-18 23:16:00,
2014-03-18 16:21:00,51.6,28.1,30.19,North,0,0.0,0.0,40,0.00,CLR,FEW,0.00,WeatherDisplay:10.37,2014-03-18 23:21:00,
2014-03-18 16:26:00,51.4,28.5,30.19,NW,315,0.0,0.0,41,0.00,CLR,FEW,0.00,WeatherDisplay:10.37,2014-03-18 23:26:00,
2014-03-18 16:31:00,51.4,28.5,30.19,WNW,292,8.1,8.1,41,0.00,CLR,FEW,0.00,WeatherDisplay:10.37,2014-03-18 23:31:00,
2014-03-18 16:36:00,51.6,29.3,30.18,NNW,338,3.5,3.5,42,0.00,CLR,FEW,0.00,WeatherDisplay:10.37,2014-03-18 23:36:00,
2014-03-18 16:41:00,51.6,28.7,30.18,West,270,5.8,6.0,41,0.00,CLR,FEW,0.00,WeatherDisplay:10.37,2014-03-18 23:41:00,
2014-03-18 16:46:00,51.6,29.3,30.19,WNW,292,3.6,3.6,42,0.00,CLR,FEW,0.00,WeatherDisplay:10.37,2014-03-18 23:46:00,
2014-03-18 16:51:00,51.6,29.3,30.18,West,270,4.6,4.6,42,0.00,CLR,FEW,0.00,WeatherDisplay:10.37,2014-03-18 23:51:00,
2014-03-18 16:56:00,51.6,29.3,30.18,WNW,292,0.0,0.0,42,0.00,CLR,FEW,0.00,WeatherDisplay:10.37,2014-03-18 23:56:00,
2014-03-18 17:01:00,51.6,28.7,30.18,NNW,338,0.0,0.0,41,0.00,CLR,FEW,0.00,WeatherDisplay:10.37,2014-03-19 00:01:00,
2014-03-18 17:06:00,51.4,28.5,30.18,NW,315,0.0,0.0,41,0.00,CLR,FEW,0.00,WeatherDisplay:10.37,2014-03-19 00:06:00,
2014-03-18 17:11:00,51.4,28.5,30.18,WNW,292,8.1,8.1,41,0.00,CLR,FEW,0.00,WeatherDisplay:10.37,2014-03-19 00:11:00,
2014-03-18 17:16:00,51.4,28.5,30.18,West,270,5.8,5.8,41,0.00,CLR,FEW,0.00,WeatherDisplay:10.37,2014-03-19 00:16:00,
2014-03-18 17:21:00,51.6,28.7,30.18,West,270,0.0,0.0,41,0.00,CLR,FEW,0.00,WeatherDisplay:10.37,2014-03-19 00:21:00,
2014-03-18 17:26:00,51.4,29.1,30.18,West,270,4.6,0.0,42,0.00,CLR,FEW,0.00,WeatherDisplay:10.37,2014-03-19 00:26:00,
2014-03-18 17:31:00,51.4,29.1,30.18,West,270,3.5,3.5,42,0.00,CLR,FEW,0.00,WeatherDisplay:10.37,2014-03-19 00:31:00,
2014-03-18 17:36:00,51.4,29.1,30.18,West,270,3.5,3.5,42,0.00,CLR,FEW,0.00,WeatherDisplay:10.37,2014-03-19 00:36:00,
2014-03-18 17:41:00,51.1,29.3,30.18,West,270,0.0,0.0,43,0.00,CLR,FEW,0.00,WeatherDisplay:10.37,2014-03-19 00:41:00,
2014-03-18 17:46:00,50.9,29.2,30.17,West,270,0.0,0.0,43,0.00,CLR,FEW,0.00,WeatherDisplay:10.37,2014-03-19 00:46:00,
2014-03-18 17:51:00,50.7,29.0,30.18,WSW,248,1.2,1.2,43,0.00,CLR,FEW,0.00,WeatherDisplay:10.37,2014-03-19 00:51:00,
2014-03-18 17:56:00,50.5,28.8,30.17,West,270,4.6,4.6,43,0.00,CLR,FEW,0.00,WeatherDisplay:10.37,2014-03-19 00:56:00,
2014-03-18 18:01:00,50.5,29.4,30.18,WSW,248,0.0,0.7,44,0.00,CLR,FEW,0.00,WeatherDisplay:10.37,2014-03-19 01:01:00,
2014-03-18 18:06:00,50.2,29.1,30.18,West,270,0.0,0.2,44,0.00,CLR,FEW,0.00,WeatherDisplay:10.37,2014-03-19 01:06:00,
2014-03-18 18:11:00,49.8,28.8,30.17,West,270,0.0,0.0,44,0.00,CLR,FEW,0.00,WeatherDisplay:10.37,2014-03-19 01:11:00,
2014-03-18 18:16:00,49.5,29.0,30.17,West,270,0.0,0.0,45,0.00,CLR,FEW,0.00,WeatherDisplay:10.37,2014-03-19 01:16:00,
2014-03-18 18:21:00,49.1,28.7,30.18,West,270,0.0,0.0,45,0.00,CLR,FEW,0.00,WeatherDisplay:10.37,2014-03-19 01:21:00,
2014-03-18 18:26:00,48.9,29.0,30.18,West,270,0.0,0.0,46,0.00,CLR,FEW,0.00,WeatherDisplay:10.37,2014-03-19 01:26:00,
2014-03-18 18:31:00,48.6,28.7,30.18,West,270,0.0,0.0,46,0.00,CLR,FEW,0.00,WeatherDisplay:10.37,2014-03-19 01:31:00,
2014-03-18 18:36:00,48.0,28.2,30.18,West,270,0.0,0.0,46,0.00,CLR,FEW,0.00,WeatherDisplay:10.37,2014-03-19 01:36:00,
2014-03-18 18:41:00,47.8,28.0,30.18,West,270,0.0,0.0,46,0.00,CLR,FEW,0.00,WeatherDisplay:10.37,2014-03-19 01:41:00,
2014-03-18 18:46:00,47.1,27.9,30.18,West,270,0.0,0.0,47,0.00,CLR,FEW,0.00,WeatherDisplay:10.37,2014-03-19 01:46:00,
2014-03-18 18:51:00,46.8,28.1,30.18,West,270,0.0,0.0,48,0.00,CLR,FEW,0.00,WeatherDisplay:10.37,2014-03-19 01:51:00,
2014-03-18 18:56:00,46.2,27.6,30.18,West,270,0.0,0.0,48,0.00,CLR,FEW,0.00,WeatherDisplay:10.37,2014-03-19 01:56:00,
2014-03-18 19:01:00,45.7,27.6,30.18,West,270,0.0,0.0,49,0.00,CLR,FEW,0.00,WeatherDisplay:10.37,2014-03-19 02:01:00,
2014-03-18 19:06:00,45.5,27.9,30.18,West,270,0.0,0.0,50,0.00,CLR,FEW,0.00,WeatherDisplay:10.37,2014-03-19 02:06:00,
2014-03-18 19:11:00,45.1,27.6,30.18,West,270,0.0,0.0,50,0.00,CLR,FEW,0.00,WeatherDisplay:10.37,2014-03-19 02:11:00,
2014-03-18 19:16:00,45.0,27.9,30.17,West,270,0.0,0.0,51,0.00,CLR,FEW,0.00,WeatherDisplay:10.37,2014-03-19 02:16:00,
2014-03-18 19:21:00,45.0,27.9,30.18,West,270,0.0,0.0,51,0.00,CLR,FEW,0.00,WeatherDisplay:10.37,2014-03-19 02:21:00,
2014-03-18 19:26:00,44.2,27.2,30.18,West,270,0.0,0.0,51,0.00,CLR,FEW,0.00,WeatherDisplay:10.37,2014-03-19 02:26:00,
2014-03-18 19:31:00,43.7,27.2,30.18,West,270,0.0,0.0,52,0.00,CLR,FEW,0.00,WeatherDisplay:10.37,2014-03-19 02:31:00,
2014-03-18 19:36:00,43.3,26.9,30.18,West,270,0.0,0.0,52,0.00,CLR,FEW,0.00,WeatherDisplay:10.37,2014-03-19 02:36:00,
2014-03-18 19:41:00,43.0,27.0,30.18,West,270,0.0,0.0,53,0.00,CLR,FEW,0.00,WeatherDisplay:10.37,2014-03-19 02:41:00,
2014-03-18 19:46:00,42.1,26.6,30.18,West,270,0.0,0.0,54,0.00,CLR,FEW,0.00,WeatherDisplay:10.37,2014-03-19 02:46:00,
2014-03-18 19:51:00,41.9,26.4,30.18,West,270,0.0,0.0,54,0.00,CLR,FEW,0.00,WeatherDisplay:10.37,2014-03-19 02:51:00,
2014-03-18 19:56:00,41.9,26.9,30.18,West,270,0.0,0.0,55,0.00,CLR,FEW,0.00,WeatherDisplay:10.37,2014-03-19 02:56:00,
2014-03-18 20:01:00,41.5,26.6,30.18,West,270,0.0,0.0,55,0.00,CLR,FEW,0.00,WeatherDisplay:10.37,2014-03-19 03:01:00,
2014-03-18 20:06:00,41.2,26.7,30.18,West,270,0.0,0.0,56,0.00,CLR,FEW,0.00,WeatherDisplay:10.37,2014-03-19 03:06:00,
2014-03-18 20:11:00,40.8,26.3,30.18,West,270,0.0,0.0,56,0.00,CLR,FEW,0.00,WeatherDisplay:10.37,2014-03-19 03:11:00,
2014-03-18 20:16:00,40.8,26.3,30.19,West,270,0.0,0.0,56,0.00,CLR,FEW,0.00,WeatherDisplay:10.37,2014-03-19 03:16:00,
2014-03-18 20:21:00,40.3,26.2,30.19,West,270,0.0,0.0,57,0.00,CLR,FEW,0.00,WeatherDisplay:10.37,2014-03-19 03:21:00,
2014-03-18 20:26:00,39.9,26.3,30.19,West,270,0.0,0.0,58,0.00,CLR,FEW,0.00,WeatherDisplay:10.37,2014-03-19 03:26:00,
2014-03-18 20:31:00,39.6,26.0,30.20,West,270,0.0,0.0,58,0.00,CLR,FEW,0.00,WeatherDisplay:10.37,2014-03-19 03:31:00,
2014-03-18 20:36:00,39.6,26.4,30.19,West,270,0.0,0.0,59,0.00,CLR,FEW,0.00,WeatherDisplay:10.37,2014-03-19 03:36:00,
2014-03-18 20:42:00,39.0,26.3,30.20,West,270,0.0,0.0,60,0.00,CLR,FEW,0.00,WeatherDisplay:10.37,2014-03-19 03:42:00,
2014-03-18 20:47:00,38.8,26.1,30.19,West,270,0.0,0.0,60,0.00,CLR,FEW,0.00,WeatherDisplay:10.37,2014-03-19 03:47:00,
2014-03-18 20:52:00,38.8,26.1,30.19,West,270,0.0,0.0,60,0.00,CLR,FEW,0.00,WeatherDisplay:10.37,2014-03-19 03:52:00,
2014-03-18 20:57:00,38.5,25.8,30.19,West,270,0.0,0.0,60,0.00,CLR,FEW,0.00,WeatherDisplay:10.37,2014-03-19 03:57:00,
2014-03-18 21:01:00,38.3,26.0,30.19,West,270,0.0,0.0,61,0.00,CLR,FEW,0.00,WeatherDisplay:10.37,2014-03-19 04:01:00,
2014-03-18 21:04:00,38.3,26.0,30.19,West,270,0.0,0.0,61,0.00,CLR,FEW,0.00,WeatherDisplay:10.37,2014-03-19 04:04:00,
2014-03-18 21:06:00,38.1,25.8,30.19,West,270,0.0,0.0,61,0.00,CLR,FEW,0.00,WeatherDisplay:10.37,2014-03-19 04:06:00,
2014-03-18 21:07:00,38.1,25.8,30.19,West,270,0.0,0.0,61,0.00,CLR,FEW,0.00,WeatherDisplay:10.37,2014-03-19 04:07:00,
2014-03-18 21:08:00,38.1,25.8,30.19,West,270,0.0,0.0,61,0.00,CLR,FEW,0.00,WeatherDisplay:10.37,2014-03-19 04:08:00,
2014-03-18 21:11:00,38.1,26.2,30.19,West,270,0.0,0.0,62,0.00,CLR,FEW,0.00,WeatherDisplay:10.37,2014-03-19 04:11:00,
2014-03-18 21:16:00,37.9,26.1,30.19,West,270,0.0,0.0,62,0.00,CLR,FEW,0.00,WeatherDisplay:10.37,2014-03-19 04:16:00,
2014-03-18 21:21:00,37.8,25.9,30.19,West,270,0.0,0.0,62,0.00,CLR,FEW,0.00,WeatherDisplay:10.37,2014-03-19 04:21:00,
2014-03-18 21:26:00,37.6,25.7,30.19,West,270,0.0,0.0,62,0.00,CLR,FEW,0.00,WeatherDisplay:10.37,2014-03-19 04:26:00,
2014-03-18 21:31:00,37.4,25.6,30.18,West,270,0.0,0.0,62,0.00,CLR,FEW,0.00,WeatherDisplay:10.37,2014-03-19 04:31:00,
2014-03-18 21:36:00,37.2,25.4,30.18,West,270,0.0,0.0,62,0.00,CLR,FEW,0.00,WeatherDisplay:10.37,2014-03-19 04:36:00,
2014-03-18 21:41:00,37.0,25.6,30.19,West,270,0.0,0.0,63,0.00,CLR,FEW,0.00,WeatherDisplay:10.37,2014-03-19 04:41:00,
2014-03-18 21:46:00,36.9,25.4,30.18,West,270,0.0,0.0,63,0.00,CLR,FEW,0.00,WeatherDisplay:10.37,2014-03-19 04:46:00,
2014-03-18 21:51:00,36.5,25.1,30.19,West,270,0.0,0.0,63,0.00,CLR,FEW,0.00,WeatherDisplay:10.37,2014-03-19 04:51:00,
2014-03-18 21:56:00,36.3,25.3,30.18,West,270,0.0,0.0,64,0.00,CLR,FEW,0.00,WeatherDisplay:10.37,2014-03-19 04:56:00,
2014-03-18 22:08:00,36.0,25.0,30.18,West,270,0.0,0.0,64,0.00,CLR,FEW,0.00,WeatherDisplay:10.37,2014-03-19 05:08:00,
2014-03-18 22:13:00,35.8,24.8,30.18,West,270,0.0,0.0,64,0.00,CLR,FEW,0.00,WeatherDisplay:10.37,2014-03-19 05:13:00,
2014-03-18 22:18:00,35.8,25.2,30.18,West,270,0.0,0.0,65,0.00,CLR,FEW,0.00,WeatherDisplay:10.37,2014-03-19 05:18:00,
2014-03-18 22:23:00,35.4,24.8,30.18,West,270,0.0,0.0,65,0.00,CLR,FEW,0.00,WeatherDisplay:10.37,2014-03-19 05:23:00,
2014-03-18 22:28:00,35.4,24.8,30.18,West,270,0.0,0.0,65,0.00,CLR,FEW,0.00,WeatherDisplay:10.37,2014-03-19 05:28:00,
2014-03-18 22:33:00,35.2,24.6,30.18,West,270,0.0,0.0,65,0.00,CLR,FEW,0.00,WeatherDisplay:10.37,2014-03-19 05:33:00,
2014-03-18 22:38:00,34.9,24.7,30.18,West,270,0.0,0.0,66,0.00,CLR,FEW,0.00,WeatherDisplay:10.37,2014-03-19 05:38:00,
2014-03-18 22:43:00,34.9,24.7,30.18,West,270,0.0,0.0,66,0.00,CLR,FEW,0.00,WeatherDisplay:10.37,2014-03-19 05:43:00,
2014-03-18 22:48:00,34.7,24.5,30.18,West,270,0.0,0.0,66,0.00,CLR,FEW,0.00,WeatherDisplay:10.37,2014-03-19 05:48:00,
2014-03-18 22:53:00,34.5,24.7,30.18,West,270,0.0,0.0,67,0.00,CLR,FEW,0.00,WeatherDisplay:10.37,2014-03-19 05:53:00,
2014-03-18 22:58:00,34.3,24.5,30.18,West,270,0.0,0.0,67,0.00,CLR,FEW,0.00,WeatherDisplay:10.37,2014-03-19 05:58:00,
2014-03-18 23:03:00,34.3,24.5,30.18,West,270,0.0,0.0,67,0.00,CLR,FEW,0.00,WeatherDisplay:10.37,2014-03-19 06:03:00,
2014-03-18 23:08:00,34.3,24.5,30.18,West,270,0.0,0.0,67,0.00,CLR,FEW,0.00,WeatherDisplay:10.37,2014-03-19 06:08:00,
2014-03-18 23:13:00,34.2,24.7,30.17,West,270,0.0,0.0,68,0.00,CLR,FEW,0.00,WeatherDisplay:10.37,2014-03-19 06:13:00,
2014-03-18 23:18:00,34.0,24.5,30.17,West,270,0.0,0.0,68,0.00,CLR,FEW,0.00,WeatherDisplay:10.37,2014-03-19 06:18:00,
2014-03-18 23:23:00,33.8,24.4,30.18,West,270,0.0,0.0,68,0.00,CLR,FEW,0.00,WeatherDisplay:10.37,2014-03-19 06:23:00,
2014-03-18 23:28:00,33.6,24.5,30.17,West,270,0.0,0.0,69,0.00,CLR,FEW,0.00,WeatherDisplay:10.37,2014-03-19 06:28:00,
2014-03-18 23:33:00,33.6,24.5,30.17,West,270,0.0,0.0,69,0.00,CLR,FEW,0.00,WeatherDisplay:10.37,2014-03-19 06:33:00,
2014-03-18 23:38:00,33.4,24.4,30.17,West,270,0.0,0.0,69,0.00,CLR,FEW,0.00,WeatherDisplay:10.37,2014-03-19 06:38:00,
2014-03-18 23:43:00,33.4,24.4,30.17,West,270,0.0,0.0,69,0.00,CLR,FEW,0.00,WeatherDisplay:10.37,2014-03-19 06:43:00,
2014-03-18 23:48:00,33.3,24.2,30.17,West,270,0.0,0.0,69,0.00,CLR,FEW,0.00,WeatherDisplay:10.37,2014-03-19 06:48:00,
2014-03-18 23:53:00,33.3,24.2,30.17,West,270,0.0,0.0,69,0.00,CLR,FEW,0.00,WeatherDisplay:10.37,2014-03-19 06:53:00,
2014-03-18 23:58:00,33.1,24.4,30.17,West,270,0.0,0.0,70,0.00,CLR,FEW,0.00,WeatherDisplay:10.37,2014-03-19 06:58:00,